This demonstration page uses our WeatherBlox Daily Observations layout. Learn more.

Hourly Observations for November 10, 2015

Temp ( °F °C ) Dew Point ( °F °C ) Humidity (%) Winds ( mph kmh ) Pressure ( in mb ) Visibility ( mi km ) Precip ( " mm )
12:15 am 00:15 Clear 44 6.7 35 1.5 70 70 SSE 10 17 29.94 1014 10 16.0934 0 0
12:35 am 00:35 Clear 43 6.3 35 1.6 72 72 SSE 8 13 29.94 1014 10 16.0934 0 0
12:55 am 00:55 Clear 43 6.1 35 1.5 73 73 SSE 10 17 29.94 1014 10 16.0934 0 0
1:15 am 01:15 Clear 42 5.8 35 1.5 74 74 SSE 10 17 29.94 1014 10 16.0934 0 0
1:35 am 01:35 Clear 42 5.7 35 1.4 74 74 S 9 15 29.94 1014 10 16.0934 0 0
1:55 am 01:55 Clear 41 5.2 34 1.3 76 76 S 9 15 29.91 1013 10 16.0934 0 0
2:15 am 02:15 Clear 41 5.2 34 1.3 76 76 S 8 13 29.91 1013 10 16.0934 0 0
2:35 am 02:35 Partly Cloudy 41 5 34 1.3 77 77 S 7 11 29.91 1013 10 16.0934 0 0
2:55 am 02:55 Partly Cloudy 41 5 35 1.5 78 78 S 6 9 29.97 1015 10 16.0934 0 0
3:15 am 03:15 Partly Cloudy 42 5.7 35 1.7 76 76 S 9 15 29.91 1013 10 16.0934 0 0
3:35 am 03:35 Mostly Cloudy 42 5.5 36 2 78 78 S 6 9 29.91 1013 10 16.0934 0 0
3:55 am 03:55 Cloudy 44 6.5 36 2.3 75 75 S 6 9 29.91 1013 10 16.0934 0 0
4:15 am 04:15 Cloudy 44 6.9 36 2.4 73 73 SSE 7 11 29.88 1012 10 16.0934 0 0
4:35 am 04:35 Partly Cloudy 42 5.3 35 1.8 78 78 SSE 7 11 29.88 1012 10 16.0934 0 0
4:55 am 04:55 Clear 39 4.1 34 1.1 81 81 SSE 6 9 29.91 1013 10 16.0934 0 0
5:15 am 05:15 Clear 38 3.4 34 1 84 84 SE 3 6 29.91 1013 10 16.0934 0 0
5:35 am 05:35 Clear 37 2.6 33 0.6 87 87 ESE 3 6 29.94 1014 10 16.0934 0 0
5:55 am 05:55 Clear 36 2.2 32 0.1 86 86 SE 6 9 29.94 1014 10 16.0934 0 0
6:15 am 06:15 Clear 36 2 32 0.1 87 87 SE 3 6 29.94 1014 10 16.0934 0 0
6:35 am 06:35 Mostly Cloudy 36 2.1 32 0.1 87 87 Calm 29.94 1014 10 16.0934 0 0
6:55 am 06:55 Cloudy 37 2.5 33 0.5 87 87 SSE 3 6 29.94 1014 10 16.0934 0 0
7:15 am 07:15 Cloudy 38 3.3 34 1.2 86 86 S 3 6 29.94 1014 10 16.0934 0 0
7:35 am 07:35 Cloudy 38 3.5 34 1.3 86 86 SW 3 6 29.91 1013 10 16.0934 0 0
7:55 am 07:55 Cloudy 40 4.5 36 2.2 85 85 Calm 29.91 1013 10 16.0934 0 0
8:15 am 08:15 Cloudy 43 5.9 38 3.4 84 84 SW 3 6 29.91 1013 10 16.0934 0 0
8:35 am 08:35 Cloudy 45 7.1 40 4.2 82 82 SW 5 7 29.91 1013 10 16.0934 0 0
8:55 am 08:55 Cloudy 46 7.8 40 4.6 80 80 SSW 3 6 29.91 1013 10 16.0934 0 0
9:15 am 09:15 Cloudy 47 8.3 43 6.1 86 86 SSW 7 11 29.91 1013 10 16.0934 0 0
9:35 am 09:35 Cloudy 47 8.4 43 6 85 85 S 6 9 29.91 1013 10 16.0934 0 0
9:55 am 09:55 Cloudy 47 8.2 43 6.3 88 88 SSW 6 9 29.91 1013 10 16.0934 0 0
10:15 am 10:15 Cloudy 47 8.5 44 6.5 87 87 SSW 6 9 29.88 1012 10 16.0934 0 0
10:35 am 10:35 Cloudy 47 8.5 44 6.5 87 87 SSW 3 6 29.85 1011 10 16.0934 0 0
10:55 am 10:55 Cloudy 47 8.6 44 6.5 87 87 Calm 29.85 1011 10 16.0934 0 0
11:15 am 11:15 Cloudy 48 8.8 44 6.6 86 86 Calm 29.85 1011 10 16.0934 0 0
11:35 am 11:35 Cloudy 49 9.4 44 6.7 83 83 SW 5 7 29.85 1011 10 16.0934 0 0
11:55 am 11:55 Cloudy 49 9.5 44 6.7 83 83 SSW 3 6 29.85 1011 10 16.0934 0 0
12:15 pm 12:15 Cloudy 50 10 44 6.9 81 81 Calm 29.83 1010 10 16.0934 0 0
12:35 pm 12:35 Mostly Cloudy 51 10.4 45 7 80 80 SSW 3 6 29.83 1010 10 16.0934 0 0
12:55 pm 12:55 Partly Cloudy 52 11.3 45 7.1 76 76 SSW 3 6 29.8 1009 10 16.0934 0 0
1:15 pm 13:15 Sunny 53 11.5 45 7.1 75 75 Calm 29.77 1008 10 16.0934 0 0
1:35 pm 13:35 Sunny 54 12.1 45 7.2 72 72 SE 3 6 29.77 1008 10 16.0934 0 0
1:55 pm 13:55 Sunny 55 12.7 45 7.3 70 70 SE 3 6 29.77 1008 10 16.0934 0 0
2:15 pm 14:15 Sunny 55 13 45 7.1 68 68 S 5 7 29.77 1008 10 16.0934 0 0
2:35 pm 14:35 Sunny 56 13.3 45 7.2 67 67 Calm 29.77 1008 10 16.0934 0 0
2:55 pm 14:55 Sunny 57 13.9 45 7 63 63 SE 5 7 29.74 1007 10 16.0934 0 0
3:15 pm 15:15 Sunny 58 14.4 44 6.9 61 61 SSE 5 7 29.74 1007 10 16.0934 0 0
3:35 pm 15:35 Sunny 59 15 44 6.5 57 57 SSE 9 15 29.74 1007 10 16.0934 0 0
3:55 pm 15:55 Sunny 59 15 43 6 55 55 SSE 8 13 29.74 1007 10 16.0934 0 0
4:15 pm 16:15 Sunny 59 14.8 43 6 56 56 SSE 7 11 29.74 1007 10 16.0934 0 0
4:35 pm 16:35 Sunny 58 14.6 43 5.9 56 56 SSE 8 13 29.71 1006 10 16.0934 0 0
4:55 pm 16:55 Sunny 56 13.5 42 5.6 59 59 SSE 7 11 29.71 1006 10 16.0934 0 0
5:15 pm 17:15 Sunny 53 11.6 41 5.2 65 65 SE 8 13 29.74 1007 10 16.0934 0 0
5:35 pm 17:35 Clear 51 10.4 41 5 69 69 SSE 6 9 29.77 1008 10 16.0934 0 0
5:55 pm 17:55 Clear 48 8.7 40 4.3 74 74 SSE 6 9 29.77 1008 10 16.0934 0 0
6:15 pm 18:15 Clear 47 8.5 40 4.2 75 75 S 7 11 29.77 1008 10 16.0934 0 0
6:35 pm 18:35 Clear 47 8.3 40 4.5 77 77 SSE 7 11 29.77 1008 10 16.0934 0 0
6:55 pm 18:55 Clear 45 7.4 39 4 79 79 SSE 8 13 29.83 1010 10 16.0934 0 0
7:15 pm 19:15 Clear 45 7.1 40 4.5 84 84 SSE 8 13 29.77 1008 10 16.0934 0 0
7:35 pm 19:35 Clear 44 6.7 40 4.3 85 85 SE 8 13 29.77 1008 10 16.0934 0 0
7:55 pm 19:55 Clear 42 5.8 39 4.1 89 89 SSE 6 9 29.8 1009 10 16.0934 0 0
8:15 pm 20:15 Clear 42 5.4 38 3.6 88 88 SE 3 6 29.8 1009 10 16.0934 0 0
8:35 pm 20:35 Clear 41 4.9 39 3.7 92 92 Calm 29.77 1008 10 16.0934 0 0
8:55 pm 20:55 Clear 39 3.8 37 2.7 93 93 Calm 29.77 1008 7 11.26538 0 0
9:15 pm 21:15 Clear 36 2.2 34 1.2 93 93 NNE 3 6 29.8 1009 7 11.26538 0 0
9:35 pm 21:35 Clear with Mist and Fog 35 1.5 33 0.6 94 94 NE 5 7 29.8 1009 5 8.0467 0 0
9:55 pm 21:55 Clear with Mist and Fog 35 1.6 33 0.8 94 94 Calm 29.8 1009 5 8.0467 0 0
10:15 pm 22:15 Clear with Mist and Fog 36 2 34 1.1 94 94 N 5 7 29.8 1009 5 8.0467 0 0
10:35 pm 22:35 Clear with Mist and Fog 35 1.6 34 1 96 96 NNE 8 13 29.8 1009 3 4.82802 0 0
10:55 pm 22:55 Clear with Mist and Fog 35 1.6 34 0.9 95 95 NNE 6 9 29.8 1009 4 6.43736 0 0
11:15 pm 23:15 Clear with Mist and Fog 36 2 34 1.2 95 95 NNE 7 11 29.77 1008 4 6.43736 0 0
11:35 pm 23:35 Clear with Mist and Fog 35 1.9 34 1.2 95 95 NNE 8 13 29.77 1008 4 6.43736 0 0
11:55 pm 23:55 Clear with Mist and Fog 37 3 37 2.5 97 97 NNE 8 13 29.77 1008 3 4.82802 0 0

Powered by AerisWeather